TimeCDT,TemperatureF,Dew PointF,Humidity,Sea Level PressureIn,VisibilityMPH,Wind Direction,Wind SpeedMPH,Gust SpeedMPH,PrecipitationIn,Events,Conditions,WindDirDegrees,DateUTC
12:54 AM,37.9,34.0,86,30.06,10.0,Calm,Calm,-,N/A,,Clear,0,2012-10-09 05:54:00
1:54 AM,37.9,35.1,89,30.06,10.0,Calm,Calm,-,N/A,,Clear,0,2012-10-09 06:54:00
2:54 AM,37.9,35.1,89,30.05,10.0,East,3.5,-,N/A,,Clear,90,2012-10-09 07:54:00
3:54 AM,37.0,34.0,89,30.04,10.0,Calm,Calm,-,N/A,,Clear,0,2012-10-09 08:54:00
4:54 AM,35.1,34.0,96,30.04,10.0,Calm,Calm,-,N/A,,Clear,0,2012-10-09 09:54:00
5:54 AM,36.0,34.0,93,30.05,10.0,Calm,Calm,-,N/A,,Clear,0,2012-10-09 10:54:00
6:54 AM,36.0,35.1,97,30.06,9.0,Calm,Calm,-,N/A,,Clear,0,2012-10-09 11:54:00
7:54 AM,41.0,39.0,93,30.06,10.0,East,3.5,-,N/A,,Clear,90,2012-10-09 12:54:00
8:54 AM,51.1,42.1,71,30.06,10.0,South,5.8,-,N/A,,Clear,170,2012-10-09 13:54:00
9:54 AM,55.0,42.1,62,30.04,10.0,SSW,12.7,-,N/A,,Clear,210,2012-10-09 14:54:00
10:54 AM,60.1,43.0,53,30.02,10.0,SSW,15.0,-,N/A,,Clear,200,2012-10-09 15:54:00
11:54 AM,63.0,43.0,48,30.00,10.0,South,11.5,-,N/A,,Clear,190,2012-10-09 16:54:00
12:54 PM,64.0,43.0,46,29.97,10.0,SSW,12.7,20.7,N/A,,Clear,210,2012-10-09 17:54:00
1:54 PM,66.9,42.1,40,29.94,10.0,SSW,9.2,-,N/A,,Clear,200,2012-10-09 18:54:00
2:54 PM,68.0,43.0,40,29.92,10.0,SSW,13.8,21.9,N/A,,Clear,200,2012-10-09 19:54:00
3:54 PM,68.0,41.0,37,29.90,10.0,SSW,16.1,20.7,N/A,,Clear,200,2012-10-09 20:54:00
4:54 PM,66.9,42.1,40,29.91,10.0,SSW,11.5,-,N/A,,Clear,200,2012-10-09 21:54:00
5:54 PM,64.0,42.1,45,29.91,10.0,SW,8.1,-,N/A,,Clear,220,2012-10-09 22:54:00
6:54 PM,59.0,44.1,58,29.91,10.0,South,4.6,-,N/A,,Overcast,180,2012-10-09 23:54:00
7:54 PM,55.0,45.0,69,29.91,10.0,SSE,6.9,-,N/A,,Scattered Clouds,160,2012-10-10 00:54:00
8:54 PM,59.0,45.0,60,29.92,10.0,SW,4.6,-,N/A,,Overcast,220,2012-10-10 01:54:00
9:54 PM,59.0,45.0,60,29.93,10.0,SW,3.5,-,N/A,,Overcast,230,2012-10-10 02:54:00
10:34 PM,55.4,42.8,63,29.99,10.0,North,17.3,24.2,N/A,,Overcast,350,2012-10-10 03:34:00
10:54 PM,53.1,43.0,69,30.00,10.0,NNW,12.7,-,N/A,,Overcast,340,2012-10-10 03:54:00
11:39 PM,50.0,42.8,76,30.04,10.0,NNW,21.9,28.8,0.00,Rain,Light Rain,340,2012-10-10 04:39:00
11:54 PM,48.0,42.1,80,30.05,9.0,NNW,19.6,26.5,0.00,,Overcast,330,2012-10-10 04:54:00